{"data":{"norad_id":87042,"epoch":"2026-09-17T08:57:44.475552Z","epoch_age_seconds":284681,"freshness":"STALE","line1":"1 87042U          26260.37343143  .00000401  00000+0  26034-3 0  9997","line2":"2 87042  98.6851 298.1871 0043492  30.5956 329.7737 14.07515349593156","mean_motion":14.07515349,"eccentricity":0.0043492,"inclination_deg":98.6851,"raan_deg":298.1871,"arg_perigee_deg":30.5956,"mean_anomaly_deg":329.7737,"bstar":0.00026034,"rev_number":59315,"period_min":102.307942931,"perigee_km":836.37226248837,"apogee_km":899.40107476756,"semimajor_km":7246.023668628,"source":"CELESTRAK","updated_at":"2026-09-20T09:00:32.449327Z"}}